Tracking 35274 objects as of 12-Sep-2026
HD Live streaming from Space Station
objects crossing your sky now

SPACEBEE-67


SPACEBEE-67 is no longer on orbit


NORAD ID: 48629
Int'l Code: 2021-006EV
Launch date: January 24, 2021
Source: United States (US)
Launch site: AIR FORCE EASTERN TEST RANGE (AFETR)
Decay date: 2023-04-19
Your satellite tracking list
Your tracking list is empty




NASA's NSSDC Master Catalog

Two Line Element Set (TLE):
1 48629U 21006EV  23107.04376461  .21894054  24313-5  79556-3 0  9998
2 48629  97.1259 153.9185 0012244 247.8740 112.1262 16.43132758124047
Source of the keplerian elements: AFSPC